Terug naar catalogus

CZ-3C R/B

ActiefHEO
NORAD 36288·ROCKET BODY·🇨🇳 China

Gelanceerd Jan 16, 2010 vanaf Xichang Satellite Launch Center

Loading…

Volgende Passages (komende 24 uur)

TLE

VersSource: Space-Track

Epoch: Sep 14, 2026, 02:08 UTC

1 36288U 10001B   26257.08950907  .00004849  00000-0  11339-2 0  9993
2 36288  19.9320 255.3325 6954375 243.5781  31.5582  2.70166424150616

Volg CZ-3C R/B in realtime met AllMySat

Download on the App Store